Moriarty, NM

4:25 AM MDT on May 26, 2017 (GMT -0600)
Moriarty

Weather History for K0E0 - April, 2013

Change the Weather History Date:

Thursday, April 4, 2013

  Actual Average (KABQ) Record (KABQ)
Temperature  
Mean Temperature 46 °F -  
Max Temperature 70 °F 65 °F 82 °F (1943)
Min Temperature 21 °F 36 °F 19 °F (1934)
Degree Days  
Heating Degree Days 20    
Moisture  
Dew Point 15 °F    
Average Humidity 37    
Maximum Humidity 75    
Minimum Humidity 10    
Precipitation  
Precipitation 0.00 in - - ()
Sea Level Pressure  
Sea Level Pressure 30.21 in    
Wind  
Wind Speed 3 mph (NW)    
Max Wind Speed 15 mph    
Max Gust Speed 20 mph    
Visibility 10 miles    
Events      
Averages and records for this station are not official NWS values.
T = Trace of Precipitation, MM = Missing Value Source: NWS Daily Summary

Daily Weather History Graph

Daily Weather History Graph

Search for Another Location

Airport or City:

Trip Planner

Search our weather history database for the weather conditions in past years. The results will help you decide how hot, cold, wet, or windy it might be!

Date:

Astronomy

Apr. 04, 2013 Rise Set
Actual Time 6:46 AM MDT 7:27 PM MDT
Civil Twilight 6:20 AM MDT 7:53 PM MDT
Nautical Twilight 5:50 AM MDT 8:23 PM MDT
Astronomical Twilight 5:19 AM MDT 8:54 PM MDT
Moon 3:02 AM MDT (4/4) 2:01 PM MDT (4/4)
Length of Visible Light 13h 32m
Length of Day
12h 41m
Waning Crescent, 33% of the Moon is Illuminated
Apr 4
Waning Crescent
Apr 10
New
Apr 18
First Quarter
Apr 25
Full
May 2
Last Quarter

Hourly Weather History & Observations

Time (MDT) Temp. Windchill Dew Point Humidity Pressure Visibility Wind Dir Wind Speed Gust Speed Precip Events Conditions
12:15 AM 35.8 °F 33.0 °F 22.6 °F 59% 30.22 in 10.0 mi SSE 3.5 mph - N/A   Scattered Clouds
12:35 AM 35.6 °F 32.8 °F 23.2 °F 61% 30.22 in 10.0 mi SSW 3.5 mph - N/A   Clear
12:55 AM 32.9 °F - 21.0 °F 62% 30.22 in 10.0 mi Calm Calm - N/A   Clear
1:15 AM 31.6 °F - 19.8 °F 62% 30.22 in 10.0 mi Calm Calm - N/A   Clear
1:35 AM 29.3 °F 24.3 °F 19.2 °F 66% 30.22 in 10.0 mi NW 4.6 mph - N/A   Clear
1:55 AM 29.3 °F 22.3 °F 19.2 °F 66% 30.22 in 10.0 mi NW 6.9 mph - N/A   Clear
2:15 AM 28.8 °F 25.0 °F 18.7 °F 66% 30.21 in 10.0 mi NW 3.5 mph - N/A   Clear
2:35 AM 28.4 °F - 19.0 °F 68% 30.21 in 10.0 mi Calm Calm - N/A   Clear
2:55 AM 27.1 °F 23.2 °F 17.2 °F 66% 30.21 in 10.0 mi North 3.5 mph - N/A   Clear
3:15 AM 26.4 °F 19.8 °F 18.5 °F 72% 30.21 in 10.0 mi NE 5.8 mph - N/A   Clear
3:35 AM 27.5 °F 23.6 °F 19.2 °F 71% 30.21 in 10.0 mi NNE 3.5 mph - N/A   Clear
3:55 AM 28.2 °F - 19.8 °F 71% 30.21 in 10.0 mi Calm Calm - N/A   Clear
4:15 AM 28.9 °F 25.2 °F 19.8 °F 69% 30.21 in 10.0 mi NNW 3.5 mph - N/A   Clear
4:35 AM 24.1 °F - 16.2 °F 72% 30.22 in 10.0 mi Calm Calm - N/A   Clear
4:55 AM 24.8 °F 20.5 °F 17.1 °F 72% 30.23 in 10.0 mi North 3.5 mph - N/A   Clear
5:15 AM 23.9 °F 18.0 °F 15.8 °F 71% 30.23 in 10.0 mi North 4.6 mph - N/A   Clear
5:35 AM 23.4 °F 18.9 °F 15.4 °F 72% 30.23 in 10.0 mi North 3.5 mph - N/A   Clear
5:55 AM 21.2 °F 16.4 °F 12.6 °F 69% 30.24 in 10.0 mi North 3.5 mph - N/A   Clear
6:15 AM 23.7 °F 19.3 °F 16.5 °F 74% 30.24 in 10.0 mi North 3.5 mph - N/A   Clear
6:35 AM 23.5 °F - 16.7 °F 75% 30.25 in 10.0 mi Calm Calm - N/A   Clear
6:55 AM 24.8 °F - 17.6 °F 74% 30.26 in 10.0 mi Calm Calm - N/A   Clear
7:15 AM 24.8 °F 19.1 °F 18.0 °F 75% 30.26 in 10.0 mi North 4.6 mph - N/A   Clear
7:35 AM 28.0 °F 24.2 °F 19.9 °F 72% 30.26 in 10.0 mi NNE 3.5 mph - N/A   Clear
7:55 AM 31.6 °F 27.0 °F 22.1 °F 68% 30.27 in 10.0 mi NE 4.6 mph - N/A   Clear
8:15 AM 34.0 °F 28.8 °F 23.5 °F 66% 30.27 in 10.0 mi NE 5.8 mph - N/A   Clear
8:35 AM 37.2 °F 34.7 °F 25.3 °F 62% 30.28 in 10.0 mi NNE 3.5 mph - N/A   Clear
8:55 AM 41.0 °F - 27.0 °F 57% 30.28 in 10.0 mi Calm Calm - N/A   Clear
9:15 AM 44.6 °F - 27.9 °F 52% 30.28 in 10.0 mi Calm Calm - N/A   Clear
9:35 AM 48.2 °F - 28.9 °F 47% 30.28 in 10.0 mi Calm Calm - N/A   Clear
9:55 AM 52.2 °F - 28.4 °F 40% 30.28 in 10.0 mi NNW 4.6 mph - N/A   Clear
10:35 AM 57.0 °F - 25.9 °F 30% 30.28 in 10.0 mi NW 3.5 mph - N/A   Clear
10:55 AM 59.0 °F - 25.2 °F 27% 30.28 in 10.0 mi North 3.5 mph - N/A   Clear
11:15 AM 61.5 °F - 21.7 °F 22% 30.28 in 10.0 mi West 3.5 mph - N/A   Clear
11:35 AM 61.2 °F - 19.2 °F 20% 30.27 in 10.0 mi Calm Calm - N/A   Clear
11:55 AM 62.2 °F - 18.0 °F 18% 30.26 in 10.0 mi Calm Calm - N/A   Clear
12:15 PM 62.4 °F - 18.1 °F 18% 30.26 in 10.0 mi Calm Calm - N/A   Clear
12:35 PM 64.0 °F - 17.1 °F 16% 30.25 in 10.0 mi South 6.9 mph - N/A   Clear
12:55 PM 65.3 °F - 16.9 °F 16% 30.23 in 10.0 mi Calm Calm - N/A   Clear
1:15 PM 65.8 °F - 16.3 °F 15% 30.22 in 10.0 mi NNE 5.8 mph - N/A   Clear
1:35 PM 67.1 °F - 17.1 °F 15% 30.21 in 10.0 mi NNE 4.6 mph - N/A   Clear
1:55 PM 68.5 °F - 17.6 °F 14% 30.20 in 10.0 mi WNW 4.6 mph - N/A   Clear
2:15 PM 67.1 °F - 16.9 °F 15% 30.19 in 10.0 mi WSW 4.6 mph - N/A   Clear
2:35 PM 68.2 °F - 16.2 °F 14% 30.19 in 10.0 mi Calm Calm - N/A   Clear
2:55 PM 70.0 °F - 17.1 °F 13% 30.17 in 10.0 mi West 9.2 mph - N/A   Clear
3:15 PM 69.1 °F - 18.1 °F 14% 30.17 in 10.0 mi Calm Calm - N/A   Clear
3:35 PM 70.2 °F - 17.4 °F 13% 30.16 in 10.0 mi SE 8.1 mph - N/A   Clear
3:55 PM 69.8 °F - 16.5 °F 13% 30.16 in 10.0 mi SSW 8.1 mph - N/A   Clear
4:15 PM 70.9 °F - 16.0 °F 12% 30.16 in 10.0 mi West 4.6 mph - N/A   Clear
4:35 PM 70.0 °F - 14.7 °F 12% 30.15 in 10.0 mi SSE 3.5 mph - N/A   Clear
4:55 PM 70.3 °F - 11.1 °F 10% 30.15 in 10.0 mi South 6.9 mph 19.6 mph N/A   Clear
5:15 PM 70.7 °F - 11.5 °F 10% 30.15 in 10.0 mi SW 9.2 mph - N/A   Clear
5:35 PM 70.0 °F - 9.3 °F 10% 30.16 in 10.0 mi West 15.0 mph 18.4 mph N/A   Clear
5:55 PM 68.9 °F - 9.3 °F 10% 30.16 in 10.0 mi West 13.8 mph - N/A   Clear
6:15 PM 68.4 °F - 8.4 °F 10% 30.16 in 10.0 mi West 9.2 mph 12.7 mph N/A   Clear
6:35 PM 67.1 °F - 7.7 °F 10% 30.16 in 10.0 mi West 8.1 mph - N/A   Clear
6:55 PM 65.3 °F - 8.1 °F 11% 30.16 in 10.0 mi West 5.8 mph - N/A   Clear
7:15 PM 62.6 °F - 7.5 °F 11% 30.16 in 10.0 mi West 3.5 mph - N/A   Clear
7:35 PM 62.4 °F - 7.5 °F 11% 30.16 in 10.0 mi Calm Calm - N/A   Clear
7:55 PM 55.6 °F - 5.9 °F 14% 30.16 in 10.0 mi South 3.5 mph - N/A   Clear
8:15 PM 54.0 °F - 5.2 °F 14% 30.17 in 10.0 mi South 4.6 mph - N/A   Clear
8:35 PM 50.4 °F - 4.3 °F 15% 30.17 in 10.0 mi SSW 4.6 mph - N/A   Clear
8:55 PM 47.8 °F - 3.4 °F 16% 30.17 in 10.0 mi South 4.6 mph - N/A   Clear
9:15 PM 48.0 °F - 4.1 °F 17% 30.18 in 10.0 mi WSW 6.9 mph - N/A   Clear
9:35 PM 43.9 °F - 3.9 °F 19% 30.19 in 10.0 mi Calm Calm - N/A   Clear
9:55 PM 45.5 °F 43.2 °F 5.2 °F 19% 30.20 in 10.0 mi SSW 4.6 mph - N/A   Clear
10:15 PM 45.5 °F - 4.6 °F 19% 30.20 in 10.0 mi Calm Calm - N/A   Clear
10:35 PM 40.6 °F - 3.7 °F 22% 30.20 in 10.0 mi Calm Calm - N/A   Clear
10:55 PM 40.8 °F 38.8 °F 5.2 °F 23% 30.20 in 10.0 mi ENE 3.5 mph - N/A   Clear
11:15 PM 40.1 °F 36.1 °F 5.4 °F 24% 30.20 in 10.0 mi ENE 5.8 mph - N/A   Clear
11:35 PM 40.3 °F - 4.8 °F 23% 30.20 in 10.0 mi Calm Calm - N/A   Clear
11:55 PM 38.1 °F - 5.4 °F 26% 30.20 in 10.0 mi Calm Calm - N/A   Clear